Time,TemperatureF,DewpointF,PressureIn,WindDirection,WindDirectionDegrees,WindSpeedMPH,WindSpeedGustMPH,Humidity,HourlyPrecipIn,Conditions,Clouds,dailyrainin,SoftwareType,DateUTC
2013-08-19 00:00:00,62.4,56.8,30.07,WSW,243,2.0,2.0,82,0.00,,,0.00,Wunderground v.1.15,2013-08-19 10:00:00,
2013-08-19 00:05:00,62.2,56.6,30.07,WSW,243,1.0,6.0,82,0.00,,,0.00,Wunderground v.1.15,2013-08-19 10:05:00,
2013-08-19 00:15:00,62.0,56.8,30.07,WSW,243,1.0,6.0,83,0.00,,,0.00,Wunderground v.1.15,2013-08-19 10:15:00,
2013-08-19 00:20:00,61.8,56.6,30.07,WSW,243,1.0,1.0,83,0.00,,,0.00,Wunderground v.1.15,2013-08-19 10:20:00,
2013-08-19 00:25:00,61.7,56.8,30.07,WSW,243,0.0,6.0,84,0.00,,,0.00,Wunderground v.1.15,2013-08-19 10:25:00,
2013-08-19 00:30:00,61.4,56.5,30.07,WSW,244,0.0,6.0,84,0.00,,,0.00,Wunderground v.1.15,2013-08-19 10:30:00,
2013-08-19 00:35:00,61.3,56.8,30.07,WSW,244,0.0,6.0,85,0.00,,,0.00,Wunderground v.1.15,2013-08-19 10:35:00,
2013-08-19 00:40:00,61.4,56.8,30.07,WSW,243,1.0,6.0,85,0.00,,,0.00,Wunderground v.1.15,2013-08-19 10:40:00,
2013-08-19 00:50:00,61.5,56.6,30.07,WSW,244,2.0,2.0,84,0.00,,,0.00,Wunderground v.1.15,2013-08-19 10:50:00,
2013-08-19 00:55:00,61.2,56.3,30.07,WSW,243,1.0,6.0,84,0.00,,,0.00,Wunderground v.1.15,2013-08-19 10:55:00,
2013-08-19 01:00:00,60.8,56.3,30.06,WSW,243,0.0,6.0,85,0.00,,,0.00,Wunderground v.1.15,2013-08-19 11:00:00,
2013-08-19 01:05:00,60.4,56.2,30.06,WSW,244,0.0,6.0,86,0.00,,,0.00,Wunderground v.1.15,2013-08-19 11:05:00,
2013-08-19 01:10:00,60.0,56.1,30.06,WSW,243,0.0,6.0,87,0.00,,,0.00,Wunderground v.1.15,2013-08-19 11:10:00,
2013-08-19 01:20:00,60.1,56.2,30.06,WSW,243,0.0,6.0,87,0.00,,,0.00,Wunderground v.1.15,2013-08-19 11:20:00,
2013-08-19 01:25:00,60.0,56.1,30.06,WSW,244,0.0,6.0,87,0.00,,,0.00,Wunderground v.1.15,2013-08-19 11:25:00,
2013-08-19 01:30:00,59.8,55.9,30.07,WSW,244,0.0,6.0,87,0.00,,,0.00,Wunderground v.1.15,2013-08-19 11:30:00,
2013-08-19 01:35:00,59.6,56.0,30.07,WSW,244,0.0,6.0,88,0.00,,,0.00,Wunderground v.1.15,2013-08-19 11:35:00,
2013-08-19 01:40:00,59.2,55.6,30.06,WSW,243,0.0,6.0,88,0.00,,,0.00,Wunderground v.1.15,2013-08-19 11:40:00,
2013-08-19 01:45:00,58.7,55.2,30.06,WSW,243,0.0,6.0,88,0.00,,,0.00,Wunderground v.1.15,2013-08-19 11:45:00,
2013-08-19 01:55:00,58.1,55.2,30.07,WSW,244,0.0,6.0,90,0.00,,,0.00,Wunderground v.1.15,2013-08-19 11:55:00,
2013-08-19 02:00:00,57.9,55.0,30.07,WSW,243,0.0,6.0,90,0.00,,,0.00,Wunderground v.1.15,2013-08-19 12:00:00,
2013-08-19 02:05:00,57.6,54.7,30.07,WSW,243,0.0,6.0,90,0.00,,,0.00,Wunderground v.1.15,2013-08-19 12:05:00,
2013-08-19 02:10:00,57.4,54.8,30.07,WSW,243,0.0,6.0,91,0.00,,,0.00,Wunderground v.1.15,2013-08-19 12:10:00,
2013-08-19 02:15:00,57.5,55.2,30.07,WSW,244,1.0,6.0,92,0.00,,,0.00,Wunderground v.1.15,2013-08-19 12:15:00,
2013-08-19 02:20:00,57.7,55.4,30.07,WSW,244,2.0,6.0,92,0.00,,,0.00,Wunderground v.1.15,2013-08-19 12:20:00,
2013-08-19 02:25:00,57.7,55.4,30.07,WSW,244,2.0,6.0,92,0.00,,,0.00,Wunderground v.1.15,2013-08-19 12:25:00,
2013-08-19 02:30:00,57.6,55.3,30.07,WSW,244,2.0,6.0,92,0.00,,,0.00,Wunderground v.1.15,2013-08-19 12:30:00,
2013-08-19 02:35:00,57.6,55.3,30.07,WSW,244,1.0,6.0,92,0.00,,,0.00,Wunderground v.1.15,2013-08-19 12:35:00,
2013-08-19 02:40:00,57.5,55.2,30.07,WSW,244,1.0,1.0,92,0.00,,,0.00,Wunderground v.1.15,2013-08-19 12:40:00,
2013-08-19 02:45:00,57.4,55.1,30.08,WSW,243,0.0,6.0,92,0.00,,,0.00,Wunderground v.1.15,2013-08-19 12:45:00,
2013-08-19 02:55:00,57.3,55.0,30.08,WSW,243,0.0,6.0,92,0.00,,,0.00,Wunderground v.1.15,2013-08-19 12:55:00,
2013-08-19 03:00:00,57.5,55.2,30.08,WSW,243,1.0,6.0,92,0.00,,,0.00,Wunderground v.1.15,2013-08-19 13:00:00,
2013-08-19 03:05:00,57.6,55.3,30.08,WSW,244,1.0,6.0,92,0.00,,,0.00,Wunderground v.1.15,2013-08-19 13:05:00,
2013-08-19 03:10:00,57.7,55.4,30.08,WSW,244,1.0,6.0,92,0.00,,,0.00,Wunderground v.1.15,2013-08-19 13:10:00,
2013-08-19 03:15:00,57.6,55.0,30.08,WSW,243,0.0,6.0,91,0.00,,,0.00,Wunderground v.1.15,2013-08-19 13:15:00,
2013-08-19 03:20:00,57.4,54.8,30.08,WSW,243,0.0,6.0,91,0.00,,,0.00,Wunderground v.1.15,2013-08-19 13:20:00,
2013-08-19 03:30:00,57.0,54.7,30.08,WSW,243,0.0,6.0,92,0.00,,,0.00,Wunderground v.1.15,2013-08-19 13:30:00,
2013-08-19 03:35:00,57.1,54.8,30.08,WSW,243,0.0,6.0,92,0.00,,,0.00,Wunderground v.1.15,2013-08-19 13:35:00,
2013-08-19 03:40:00,57.4,55.1,30.08,WSW,243,0.0,6.0,92,0.00,,,0.00,Wunderground v.1.15,2013-08-19 13:40:00,
2013-08-19 03:45:00,57.9,55.6,30.08,WSW,244,0.0,6.0,92,0.00,,,0.00,Wunderground v.1.15,2013-08-19 13:45:00,
2013-08-19 03:50:00,58.4,55.8,30.08,WSW,243,0.0,6.0,91,0.00,,,0.00,Wunderground v.1.15,2013-08-19 13:50:00,
2013-08-19 04:00:00,58.9,55.7,30.09,WSW,243,1.0,1.0,89,0.00,,,0.00,Wunderground v.1.15,2013-08-19 14:00:00,
2013-08-19 04:05:00,59.2,56.0,30.09,WSW,244,1.0,6.0,89,0.00,,,0.00,Wunderground v.1.15,2013-08-19 14:05:00,
2013-08-19 04:10:00,59.5,56.3,30.09,WSW,244,1.0,6.0,89,0.00,,,0.00,Wunderground v.1.15,2013-08-19 14:10:00,
2013-08-19 04:15:00,59.6,56.0,30.09,WSW,244,1.0,6.0,88,0.00,,,0.00,Wunderground v.1.15,2013-08-19 14:15:00,
2013-08-19 04:20:00,59.9,56.3,30.09,WSW,243,2.0,6.0,88,0.00,,,0.00,Wunderground v.1.15,2013-08-19 14:20:00,
2013-08-19 04:25:00,60.1,56.5,30.09,WSW,244,2.0,6.0,88,0.00,,,0.00,Wunderground v.1.15,2013-08-19 14:25:00,
2013-08-19 04:35:00,60.7,56.8,30.09,WSW,244,2.0,6.0,87,0.00,,,0.00,Wunderground v.1.15,2013-08-19 14:35:00,
2013-08-19 04:40:00,60.9,56.7,30.09,WSW,244,2.0,2.0,86,0.00,,,0.00,Wunderground v.1.15,2013-08-19 14:40:00,
2013-08-19 04:45:00,61.4,56.8,30.09,WSW,243,2.0,6.0,85,0.00,,,0.00,Wunderground v.1.15,2013-08-19 14:45:00,
2013-08-19 04:50:00,61.5,56.9,30.09,WSW,244,2.0,6.0,85,0.00,,,0.00,Wunderground v.1.15,2013-08-19 14:50:00,
2013-08-19 04:55:00,61.6,57.0,30.09,WSW,244,2.0,6.0,85,0.00,,,0.00,Wunderground v.1.15,2013-08-19 14:55:00,
2013-08-19 05:00:00,61.7,56.8,30.09,WSW,244,2.0,6.0,84,0.00,,,0.00,Wunderground v.1.15,2013-08-19 15:00:00,
2013-08-19 05:05:00,62.0,57.4,30.09,WSW,243,2.0,6.0,85,0.00,,,0.00,Wunderground v.1.15,2013-08-19 15:05:00,
2013-08-19 05:10:00,62.1,57.2,30.09,WSW,243,2.0,2.0,84,0.00,,,0.00,Wunderground v.1.15,2013-08-19 15:10:00,
2013-08-19 05:15:00,62.8,57.6,30.10,WSW,243,2.0,3.0,83,0.00,,,0.00,Wunderground v.1.15,2013-08-19 15:15:00,
2013-08-19 05:20:00,63.3,58.0,30.09,WSW,244,1.0,6.0,83,0.00,,,0.00,Wunderground v.1.15,2013-08-19 15:20:00,
2013-08-19 05:30:00,64.3,58.0,30.09,WSW,244,1.0,1.0,80,0.00,,,0.00,Wunderground v.1.15,2013-08-19 15:30:00,
2013-08-19 05:35:00,64.5,57.8,30.10,WSW,243,1.0,2.0,79,0.00,,,0.00,Wunderground v.1.15,2013-08-19 15:35:00,
2013-08-19 05:40:00,64.3,58.0,30.10,WSW,243,2.0,6.0,80,0.00,,,0.00,Wunderground v.1.15,2013-08-19 15:40:00,
2013-08-19 05:45:00,65.1,58.4,30.10,WSW,244,2.0,6.0,79,0.00,,,0.00,Wunderground v.1.15,2013-08-19 15:45:00,
2013-08-19 05:50:00,65.5,58.5,30.10,WSW,244,2.0,2.0,78,0.00,,,0.00,Wunderground v.1.15,2013-08-19 15:50:00,
2013-08-19 05:55:00,65.6,58.2,30.10,WSW,244,2.0,6.0,77,0.00,,,0.00,Wunderground v.1.15,2013-08-19 15:55:00,
2013-08-19 06:00:00,65.9,58.1,30.10,WSW,244,2.0,6.0,76,0.00,,,0.00,Wunderground v.1.15,2013-08-19 16:00:00,
2013-08-19 06:05:00,66.1,57.9,30.10,WSW,244,2.0,6.0,75,0.00,,,0.00,Wunderground v.1.15,2013-08-19 16:05:00,
2013-08-19 06:10:00,66.4,57.9,30.10,WSW,243,2.0,2.0,74,0.00,,,0.00,Wunderground v.1.15,2013-08-19 16:10:00,
2013-08-19 06:15:00,66.9,58.7,30.11,WSW,244,2.0,6.0,75,0.00,,,0.00,Wunderground v.1.15,2013-08-19 16:15:00,
2013-08-19 06:25:00,67.7,58.7,30.11,WSW,244,2.0,6.0,73,0.00,,,0.00,Wunderground v.1.15,2013-08-19 16:25:00,
2013-08-19 06:30:00,68.2,58.8,30.11,WSW,243,2.0,6.0,72,0.00,,,0.00,Wunderground v.1.15,2013-08-19 16:30:00,
2013-08-19 06:35:00,68.7,58.9,30.11,WSW,243,2.0,6.0,71,0.00,,,0.00,Wunderground v.1.15,2013-08-19 16:35:00,
2013-08-19 06:40:00,69.4,59.2,30.11,WSW,243,1.0,6.0,70,0.00,,,0.00,Wunderground v.1.15,2013-08-19 16:40:00,
2013-08-19 06:50:00,69.7,59.1,30.11,WSW,244,2.0,2.0,69,0.00,,,0.00,Wunderground v.1.15,2013-08-19 16:50:00,
2013-08-19 06:55:00,70.0,59.0,30.11,WSW,243,2.0,6.0,68,0.00,,,0.00,Wunderground v.1.15,2013-08-19 16:55:00,
2013-08-19 07:00:00,70.5,59.0,30.11,WSW,243,2.0,6.0,67,0.00,,,0.00,Wunderground v.1.15,2013-08-19 17:00:00,
2013-08-19 07:05:00,71.0,59.5,30.11,WSW,243,2.0,6.0,67,0.00,,,0.00,Wunderground v.1.15,2013-08-19 17:05:00,
2013-08-19 07:10:00,71.1,59.2,30.11,WSW,243,1.0,1.0,66,0.00,,,0.00,Wunderground v.1.15,2013-08-19 17:10:00,
2013-08-19 07:20:00,73.1,59.3,30.11,WSW,243,1.0,1.0,62,0.00,,,0.00,Wunderground v.1.15,2013-08-19 17:20:00,
2013-08-19 07:25:00,73.7,59.4,30.11,WSW,243,1.0,6.0,61,0.00,,,0.00,Wunderground v.1.15,2013-08-19 17:25:00,
2013-08-19 07:30:00,74.1,59.3,30.10,WSW,244,1.0,6.0,60,0.00,,,0.00,Wunderground v.1.15,2013-08-19 17:30:00,
2013-08-19 07:40:00,74.0,59.2,30.10,WSW,243,1.0,6.0,60,0.00,,,0.00,Wunderground v.1.15,2013-08-19 17:40:00,
2013-08-19 07:45:00,74.3,58.6,30.10,WSW,243,1.0,6.0,58,0.00,,,0.00,Wunderground v.1.15,2013-08-19 17:45:00,
2013-08-19 07:55:00,75.7,59.9,30.10,WSW,243,1.0,6.0,58,0.00,,,0.00,Wunderground v.1.15,2013-08-19 17:55:00,
2013-08-19 08:00:00,75.2,58.9,30.10,WSW,243,2.0,2.0,57,0.00,,,0.00,Wunderground v.1.15,2013-08-19 18:00:00,
2013-08-19 08:05:00,75.5,58.7,30.10,WSW,243,2.0,6.0,56,0.00,,,0.00,Wunderground v.1.15,2013-08-19 18:05:00,
2013-08-19 08:10:00,75.6,57.8,30.10,WSW,243,1.0,1.0,54,0.00,,,0.00,Wunderground v.1.15,2013-08-19 18:10:00,
2013-08-19 08:15:00,75.6,58.3,30.10,WSW,243,1.0,3.0,55,0.00,,,0.00,Wunderground v.1.15,2013-08-19 18:15:00,
2013-08-19 08:20:00,75.0,57.7,30.10,WSW,243,2.0,6.0,55,0.00,,,0.00,Wunderground v.1.15,2013-08-19 18:20:00,
2013-08-19 08:30:00,76.4,58.0,30.10,WSW,243,1.0,6.0,53,0.00,,,0.00,Wunderground v.1.15,2013-08-19 18:30:00,
2013-08-19 08:35:00,77.4,58.4,30.10,WSW,243,0.0,6.0,52,0.00,,,0.00,Wunderground v.1.15,2013-08-19 18:35:00,
2013-08-19 08:40:00,77.3,58.3,30.10,WSW,243,1.0,6.0,52,0.00,,,0.00,Wunderground v.1.15,2013-08-19 18:40:00,
2013-08-19 08:45:00,76.7,57.7,30.10,WSW,243,2.0,6.0,52,0.00,,,0.00,Wunderground v.1.15,2013-08-19 18:45:00,
2013-08-19 08:50:00,77.5,58.5,30.10,WSW,243,1.0,6.0,52,0.00,,,0.00,Wunderground v.1.15,2013-08-19 18:50:00,
2013-08-19 09:00:00,76.9,57.4,30.10,WSW,243,3.0,3.0,51,0.00,,,0.00,Wunderground v.1.15,2013-08-19 19:00:00,
2013-08-19 09:05:00,77.9,57.8,30.10,WSW,243,2.0,6.0,50,0.00,,,0.00,Wunderground v.1.15,2013-08-19 19:05:00,
2013-08-19 09:10:00,79.0,58.2,30.10,WSW,243,1.0,6.0,49,0.00,,,0.00,Wunderground v.1.15,2013-08-19 19:10:00,
2013-08-19 09:15:00,78.3,57.0,30.10,WSW,243,2.0,6.0,48,0.00,,,0.00,Wunderground v.1.15,2013-08-19 19:15:00,
2013-08-19 09:20:00,78.6,57.3,30.09,WSW,243,2.0,6.0,48,0.00,,,0.00,Wunderground v.1.15,2013-08-19 19:20:00,
2013-08-19 09:25:00,78.6,56.7,30.09,WSW,243,1.0,6.0,47,0.00,,,0.00,Wunderground v.1.15,2013-08-19 19:25:00,
2013-08-19 09:30:00,78.6,57.3,30.09,WSW,243,2.0,6.0,48,0.00,,,0.00,Wunderground v.1.15,2013-08-19 19:30:00,
2013-08-19 09:35:00,78.9,56.4,30.09,WSW,243,1.0,6.0,46,0.00,,,0.00,Wunderground v.1.15,2013-08-19 19:35:00,
2013-08-19 09:40:00,79.2,56.6,30.09,WSW,243,1.0,6.0,46,0.00,,,0.00,Wunderground v.1.15,2013-08-19 19:40:00,
2013-08-19 09:45:00,79.7,56.5,30.09,WSW,243,1.0,6.0,45,0.00,,,0.00,Wunderground v.1.15,2013-08-19 19:45:00,
2013-08-19 09:50:00,80.1,57.5,30.09,WSW,243,1.0,6.0,46,0.00,,,0.00,Wunderground v.1.15,2013-08-19 19:50:00,
2013-08-19 09:55:00,80.4,57.1,30.08,WSW,243,1.0,6.0,45,0.00,,,0.00,Wunderground v.1.15,2013-08-19 19:55:00,
2013-08-19 10:05:00,79.3,56.7,30.08,WSW,243,3.0,6.0,46,0.00,,,0.00,Wunderground v.1.15,2013-08-19 20:05:00,
2013-08-19 10:15:00,79.6,57.0,30.08,WSW,244,3.0,6.0,46,0.00,,,0.00,Wunderground v.1.15,2013-08-19 20:15:00,
2013-08-19 10:20:00,80.0,56.7,30.08,WSW,243,2.0,2.0,45,0.00,,,0.00,Wunderground v.1.15,2013-08-19 20:20:00,
2013-08-19 10:25:00,80.3,57.0,30.08,WSW,243,2.0,6.0,45,0.00,,,0.00,Wunderground v.1.15,2013-08-19 20:25:00,
2013-08-19 10:35:00,81.4,56.8,30.08,WSW,243,2.0,6.0,43,0.00,,,0.00,Wunderground v.1.15,2013-08-19 20:35:00,
2013-08-19 10:45:00,80.8,56.9,30.07,WSW,243,3.0,6.0,44,0.00,,,0.00,Wunderground v.1.15,2013-08-19 20:45:00,
2013-08-19 10:50:00,80.8,57.5,30.07,WSW,243,4.0,7.0,45,0.00,,,0.00,Wunderground v.1.15,2013-08-19 20:50:00,
2013-08-19 10:55:00,80.7,56.8,30.07,WSW,244,6.0,7.0,44,0.00,,,0.00,Wunderground v.1.15,2013-08-19 20:55:00,
2013-08-19 11:00:00,80.4,56.5,30.07,WSW,243,6.0,8.0,44,0.00,,,0.00,Wunderground v.1.15,2013-08-19 21:00:00,
2013-08-19 11:05:00,80.7,57.4,30.06,WSW,243,5.0,8.0,45,0.00,,,0.00,Wunderground v.1.15,2013-08-19 21:05:00,
2013-08-19 11:15:00,81.2,57.2,30.06,WSW,243,4.0,6.0,44,0.00,,,0.00,Wunderground v.1.15,2013-08-19 21:15:00,
2013-08-19 11:20:00,82.1,57.4,30.06,WSW,243,3.0,3.0,43,0.00,,,0.00,Wunderground v.1.15,2013-08-19 21:20:00,
2013-08-19 11:25:00,82.8,57.4,30.06,WSW,243,2.0,5.0,42,0.00,,,0.00,Wunderground v.1.15,2013-08-19 21:25:00,
2013-08-19 11:30:00,83.1,57.6,30.05,WSW,243,3.0,6.0,42,0.00,,,0.00,Wunderground v.1.15,2013-08-19 21:30:00,
2013-08-19 11:35:00,83.5,58.0,30.05,WSW,243,4.0,6.0,42,0.00,,,0.00,Wunderground v.1.15,2013-08-19 21:35:00,
2013-08-19 11:40:00,83.4,57.9,30.05,WSW,243,4.0,4.0,42,0.00,,,0.00,Wunderground v.1.15,2013-08-19 21:40:00,
2013-08-19 11:45:00,82.7,58.6,30.05,WSW,243,4.0,6.0,44,0.00,,,0.00,Wunderground v.1.15,2013-08-19 21:45:00,
2013-08-19 11:55:00,83.6,58.1,30.05,WSW,244,3.0,6.0,42,0.00,,,0.00,Wunderground v.1.15,2013-08-19 21:55:00,
2013-08-19 12:00:00,83.6,58.1,30.04,WSW,243,4.0,6.0,42,0.00,,,0.00,Wunderground v.1.15,2013-08-19 22:00:00,
2013-08-19 12:05:00,83.7,57.5,30.04,WSW,243,5.0,6.0,41,0.00,,,0.00,Wunderground v.1.15,2013-08-19 22:05:00,
2013-08-19 12:10:00,83.6,58.1,30.04,WSW,243,3.0,3.0,42,0.00,,,0.00,Wunderground v.1.15,2013-08-19 22:10:00,
2013-08-19 12:15:00,84.0,58.4,30.04,WSW,244,1.0,6.0,42,0.00,,,0.00,Wunderground v.1.15,2013-08-19 22:15:00,
2013-08-19 12:20:00,84.1,57.9,30.04,WSW,243,1.0,6.0,41,0.00,,,0.00,Wunderground v.1.15,2013-08-19 22:20:00,
2013-08-19 12:25:00,84.8,58.5,30.04,WSW,245,1.0,6.0,41,0.00,,,0.00,Wunderground v.1.15,2013-08-19 22:25:00,
2013-08-19 12:30:00,84.5,58.9,30.04,WSW,245,3.0,7.0,42,0.00,,,0.00,Wunderground v.1.15,2013-08-19 22:30:00,
2013-08-19 12:35:00,84.2,58.6,30.03,WSW,245,4.0,7.0,42,0.00,,,0.00,Wunderground v.1.15,2013-08-19 22:35:00,
2013-08-19 12:40:00,84.5,58.2,30.03,WSW,245,4.0,6.0,41,0.00,,,0.00,Wunderground v.1.15,2013-08-19 22:40:00,
2013-08-19 12:45:00,84.8,59.2,30.03,WSW,245,4.0,6.0,42,0.00,,,0.00,Wunderground v.1.15,2013-08-19 22:45:00,
2013-08-19 12:55:00,86.1,60.3,30.03,WSW,245,3.0,6.0,42,0.00,,,0.00,Wunderground v.1.15,2013-08-19 22:55:00,
2013-08-19 13:00:00,86.0,60.9,30.03,WSW,243,5.0,9.0,43,0.00,,,0.00,Wunderground v.1.15,2013-08-19 23:00:00,
2013-08-19 13:10:00,85.3,60.9,30.03,WSW,245,7.0,9.0,44,0.00,,,0.00,Wunderground v.1.15,2013-08-19 23:10:00,
2013-08-19 13:15:00,85.7,60.0,30.02,WSW,245,5.0,9.0,42,0.00,,,0.00,Wunderground v.1.15,2013-08-19 23:15:00,
2013-08-19 13:20:00,85.1,59.4,30.02,WSW,245,4.0,6.0,42,0.00,,,0.00,Wunderground v.1.15,2013-08-19 23:20:00,
2013-08-19 13:30:00,84.5,60.2,30.02,WSW,245,3.0,3.0,44,0.00,,,0.00,Wunderground v.1.15,2013-08-19 23:30:00,
2013-08-19 13:35:00,85.0,60.0,30.02,WSW,245,2.0,6.0,43,0.00,,,0.00,Wunderground v.1.15,2013-08-19 23:35:00,
2013-08-19 13:40:00,84.5,59.5,30.02,WSW,245,2.0,6.0,43,0.00,,,0.00,Wunderground v.1.15,2013-08-19 23:40:00,
2013-08-19 13:50:00,84.8,59.8,30.01,WSW,245,2.0,6.0,43,0.00,,,0.00,Wunderground v.1.15,2013-08-19 23:50:00,
2013-08-19 14:00:00,85.5,59.8,30.01,WSW,245,1.0,6.0,42,0.00,,,0.00,Wunderground v.1.15,2013-08-20 00:00:00,
2013-08-19 14:05:00,85.9,58.1,30.01,WSW,245,2.0,6.0,39,0.00,,,0.00,Wunderground v.1.15,2013-08-20 00:05:00,
2013-08-19 14:10:00,86.2,58.3,30.01,WSW,245,2.0,6.0,39,0.00,,,0.00,Wunderground v.1.15,2013-08-20 00:10:00,
2013-08-19 14:15:00,86.8,58.9,30.01,WSW,245,1.0,6.0,39,0.00,,,0.00,Wunderground v.1.15,2013-08-20 00:15:00,
2013-08-19 14:20:00,86.8,58.9,30.01,WSW,245,2.0,6.0,39,0.00,,,0.00,Wunderground v.1.15,2013-08-20 00:20:00,
2013-08-19 14:25:00,86.1,60.3,30.01,WSW,245,5.0,6.0,42,0.00,,,0.00,Wunderground v.1.15,2013-08-20 00:25:00,
2013-08-19 14:35:00,84.9,60.6,30.01,WSW,245,6.0,7.0,44,0.00,,,0.00,Wunderground v.1.15,2013-08-20 00:35:00,
2013-08-19 14:40:00,84.4,59.5,30.01,WSW,245,6.0,6.0,43,0.00,,,0.00,Wunderground v.1.15,2013-08-20 00:40:00,
2013-08-19 14:45:00,84.0,59.7,30.01,WSW,245,5.0,6.0,44,0.00,,,0.00,Wunderground v.1.15,2013-08-20 00:45:00,
2013-08-19 14:50:00,83.2,60.3,30.01,WSW,245,4.0,4.0,46,0.00,,,0.00,Wunderground v.1.15,2013-08-20 00:50:00,
2013-08-19 14:55:00,82.6,60.3,30.01,WSW,243,4.0,6.0,47,0.00,,,0.00,Wunderground v.1.15,2013-08-20 00:55:00,
2013-08-19 15:05:00,81.9,60.3,30.01,WSW,243,3.0,6.0,48,0.00,,,0.00,Wunderground v.1.15,2013-08-20 01:05:00,
2013-08-19 15:10:00,81.6,60.0,30.01,WSW,243,3.0,3.0,48,0.00,,,0.00,Wunderground v.1.15,2013-08-20 01:10:00,
2013-08-19 15:15:00,81.6,60.0,30.00,WSW,243,2.0,6.0,48,0.00,,,0.00,Wunderground v.1.15,2013-08-20 01:15:00,
2013-08-19 15:20:00,81.6,60.0,30.01,WSW,243,2.0,6.0,48,0.00,,,0.00,Wunderground v.1.15,2013-08-20 01:20:00,
2013-08-19 15:25:00,81.4,60.4,30.01,WSW,243,3.0,6.0,49,0.00,,,0.00,Wunderground v.1.15,2013-08-20 01:25:00,
2013-08-19 15:30:00,81.3,60.3,30.01,WSW,244,3.0,3.0,49,0.00,,,0.00,Wunderground v.1.15,2013-08-20 01:30:00,
2013-08-19 15:40:00,81.2,60.8,30.01,WSW,243,4.0,6.0,50,0.00,,,0.00,Wunderground v.1.15,2013-08-20 01:40:00,
2013-08-19 15:45:00,81.2,59.6,30.00,WSW,243,4.0,6.0,48,0.00,,,0.00,Wunderground v.1.15,2013-08-20 01:45:00,
2013-08-19 15:50:00,81.3,57.9,30.00,WSW,243,7.0,7.0,45,0.00,,,0.00,Wunderground v.1.15,2013-08-20 01:50:00,
2013-08-19 15:55:00,81.0,57.7,30.00,WSW,243,8.0,8.0,45,0.00,,,0.00,Wunderground v.1.15,2013-08-20 01:55:00,
2013-08-19 16:00:00,80.7,56.8,30.00,WSW,243,8.0,14.0,44,0.00,,,0.00,Wunderground v.1.15,2013-08-20 02:00:00,
2013-08-19 16:10:00,79.7,56.5,30.01,WSW,243,8.0,13.0,45,0.00,,,0.00,Wunderground v.1.15,2013-08-20 02:10:00,
2013-08-19 16:15:00,79.4,56.8,30.01,WSW,243,8.0,13.0,46,0.00,,,0.00,Wunderground v.1.15,2013-08-20 02:15:00,
2013-08-19 16:20:00,79.0,57.0,30.01,WSW,243,8.0,8.0,47,0.00,,,0.00,Wunderground v.1.15,2013-08-20 02:20:00,
2013-08-19 16:25:00,78.5,56.6,30.01,WSW,243,9.0,9.0,47,0.00,,,0.00,Wunderground v.1.15,2013-08-20 02:25:00,
2013-08-19 16:30:00,77.9,56.6,30.01,WSW,243,9.0,9.0,48,0.00,,,0.00,Wunderground v.1.15,2013-08-20 02:30:00,
2013-08-19 16:35:00,77.6,56.9,30.01,WSW,243,7.0,9.0,49,0.00,,,0.00,Wunderground v.1.15,2013-08-20 02:35:00,
2013-08-19 16:40:00,77.2,56.6,30.02,WSW,243,7.0,8.0,49,0.00,,,0.00,Wunderground v.1.15,2013-08-20 02:40:00,
2013-08-19 16:45:00,76.7,56.1,30.02,WSW,243,8.0,11.0,49,0.00,,,0.00,Wunderground v.1.15,2013-08-20 02:45:00,
2013-08-19 16:50:00,76.4,56.4,30.02,WSW,243,8.0,8.0,50,0.00,,,0.00,Wunderground v.1.15,2013-08-20 02:50:00,
2013-08-19 16:55:00,75.9,55.4,30.02,WSW,243,6.0,8.0,49,0.00,,,0.00,Wunderground v.1.15,2013-08-20 02:55:00,
2013-08-19 17:00:00,75.1,55.2,30.03,WSW,243,6.0,11.0,50,0.00,,,0.00,Wunderground v.1.15,2013-08-20 03:00:00,
2013-08-19 17:05:00,74.6,55.3,30.03,WSW,244,8.0,11.0,51,0.00,,,0.00,Wunderground v.1.15,2013-08-20 03:05:00,
2013-08-19 17:15:00,73.6,54.9,30.03,WSW,243,5.0,13.0,52,0.00,,,0.00,Wunderground v.1.15,2013-08-20 03:15:00,
2013-08-19 17:20:00,72.9,54.2,30.03,WSW,243,6.0,6.0,52,0.00,,,0.00,Wunderground v.1.15,2013-08-20 03:20:00,
2013-08-19 17:25:00,72.4,53.8,30.04,WSW,243,6.0,6.0,52,0.00,,,0.00,Wunderground v.1.15,2013-08-20 03:25:00,
2013-08-19 17:30:00,72.0,53.9,30.04,WSW,243,6.0,6.0,53,0.00,,,0.00,Wunderground v.1.15,2013-08-20 03:30:00,
2013-08-19 17:35:00,71.6,54.1,30.05,WSW,243,6.0,6.0,54,0.00,,,0.00,Wunderground v.1.15,2013-08-20 03:35:00,
2013-08-19 17:45:00,70.9,53.4,30.05,WSW,244,5.0,6.0,54,0.00,,,0.00,Wunderground v.1.15,2013-08-20 03:45:00,
2013-08-19 17:50:00,70.6,52.6,30.05,WSW,243,5.0,7.0,53,0.00,,,0.00,Wunderground v.1.15,2013-08-20 03:50:00,
2013-08-19 17:55:00,70.3,52.4,30.05,WSW,243,5.0,7.0,53,0.00,,,0.00,Wunderground v.1.15,2013-08-20 03:55:00,
2013-08-19 18:00:00,70.1,52.7,30.05,WSW,243,5.0,5.0,54,0.00,,,0.00,Wunderground v.1.15,2013-08-20 04:00:00,
2013-08-19 18:05:00,69.8,52.9,30.06,WSW,243,4.0,6.0,55,0.00,,,0.00,Wunderground v.1.15,2013-08-20 04:05:00,
2013-08-19 18:15:00,69.3,52.9,30.06,WSW,243,4.0,6.0,56,0.00,,,0.00,Wunderground v.1.15,2013-08-20 04:15:00,
2013-08-19 18:20:00,69.1,53.7,30.07,WSW,244,5.0,5.0,58,0.00,,,0.00,Wunderground v.1.15,2013-08-20 04:20:00,
2013-08-19 18:25:00,68.9,53.5,30.07,WSW,243,4.0,6.0,58,0.00,,,0.00,Wunderground v.1.15,2013-08-20 04:25:00,
2013-08-19 18:30:00,68.7,53.8,30.07,WSW,243,3.0,6.0,59,0.00,,,0.00,Wunderground v.1.15,2013-08-20 04:30:00,
2013-08-19 18:35:00,68.4,53.5,30.07,WSW,243,3.0,6.0,59,0.00,,,0.00,Wunderground v.1.15,2013-08-20 04:35:00,
2013-08-19 18:40:00,68.3,53.9,30.07,WSW,243,4.0,7.0,60,0.00,,,0.00,Wunderground v.1.15,2013-08-20 04:40:00,
2013-08-19 18:45:00,68.2,53.3,30.07,WSW,244,5.0,7.0,59,0.00,,,0.00,Wunderground v.1.15,2013-08-20 04:45:00,
2013-08-19 18:50:00,68.1,53.7,30.07,WSW,244,5.0,6.0,60,0.00,,,0.00,Wunderground v.1.15,2013-08-20 04:50:00,
2013-08-19 19:00:00,68.0,53.6,30.07,WSW,244,6.0,6.0,60,0.00,,,0.00,Wunderground v.1.15,2013-08-20 05:00:00,
2013-08-19 19:05:00,67.7,53.8,30.07,WSW,243,6.0,6.0,61,0.00,,,0.00,Wunderground v.1.15,2013-08-20 05:05:00,
2013-08-19 19:10:00,67.4,53.5,30.08,WSW,244,4.0,4.0,61,0.00,,,0.00,Wunderground v.1.15,2013-08-20 05:10:00,
2013-08-19 19:15:00,67.2,53.7,30.08,WSW,244,3.0,6.0,62,0.00,,,0.00,Wunderground v.1.15,2013-08-20 05:15:00,
2013-08-19 19:25:00,66.5,54.4,30.08,WSW,243,3.0,6.0,65,0.00,,,0.00,Wunderground v.1.15,2013-08-20 05:25:00,
2013-08-19 19:30:00,66.2,54.1,30.08,WSW,243,4.0,4.0,65,0.00,,,0.00,Wunderground v.1.15,2013-08-20 05:30:00,
2013-08-19 19:35:00,65.9,54.2,30.08,WSW,243,4.0,6.0,66,0.00,,,0.00,Wunderground v.1.15,2013-08-20 05:35:00,
2013-08-19 19:40:00,65.6,53.9,30.08,WSW,244,4.0,6.0,66,0.00,,,0.00,Wunderground v.1.15,2013-08-20 05:40:00,
2013-08-19 19:45:00,65.4,53.7,30.08,WSW,244,5.0,6.0,66,0.00,,,0.00,Wunderground v.1.15,2013-08-20 05:45:00,
2013-08-19 19:50:00,65.0,53.8,30.08,WSW,243,4.0,4.0,67,0.00,,,0.00,Wunderground v.1.15,2013-08-20 05:50:00,
2013-08-19 19:55:00,64.7,53.9,30.08,WSW,243,2.0,6.0,68,0.00,,,0.00,Wunderground v.1.15,2013-08-20 05:55:00,
2013-08-19 20:00:00,64.4,53.6,30.08,WSW,243,4.0,6.0,68,0.00,,,0.00,Wunderground v.1.15,2013-08-20 06:00:00,
2013-08-19 20:05:00,64.1,53.7,30.08,WSW,243,5.0,6.0,69,0.00,,,0.00,Wunderground v.1.15,2013-08-20 06:05:00,
2013-08-19 20:15:00,63.7,53.3,30.08,WSW,243,5.0,6.0,69,0.00,,,0.00,Wunderground v.1.15,2013-08-20 06:15:00,
2013-08-19 20:20:00,63.6,53.2,30.08,WSW,243,6.0,6.0,69,0.00,,,0.00,Wunderground v.1.15,2013-08-20 06:20:00,
2013-08-19 20:25:00,63.6,52.8,30.08,WSW,244,6.0,6.0,68,0.00,,,0.00,Wunderground v.1.15,2013-08-20 06:25:00,
2013-08-19 20:30:00,63.6,52.4,30.09,WSW,243,6.0,6.0,67,0.00,,,0.00,Wunderground v.1.15,2013-08-20 06:30:00,
2013-08-19 20:35:00,63.6,52.4,30.09,WSW,244,4.0,6.0,67,0.00,,,0.00,Wunderground v.1.15,2013-08-20 06:35:00,
2013-08-19 20:40:00,63.5,51.9,30.09,WSW,244,4.0,4.0,66,0.00,,,0.00,Wunderground v.1.15,2013-08-20 06:40:00,
2013-08-19 20:45:00,63.3,52.2,30.09,WSW,244,3.0,6.0,67,0.00,,,0.00,Wunderground v.1.15,2013-08-20 06:45:00,
2013-08-19 20:50:00,63.2,51.2,30.09,WSW,244,3.0,6.0,65,0.00,,,0.00,Wunderground v.1.15,2013-08-20 06:50:00,
2013-08-19 21:00:00,63.0,51.0,30.10,WSW,244,3.0,6.0,65,0.00,,,0.00,Wunderground v.1.15,2013-08-20 07:00:00,
2013-08-19 21:05:00,62.8,51.3,30.10,WSW,243,3.0,6.0,66,0.00,,,0.00,Wunderground v.1.15,2013-08-20 07:05:00,
2013-08-19 21:10:00,62.6,51.1,30.10,WSW,244,2.0,6.0,66,0.00,,,0.00,Wunderground v.1.15,2013-08-20 07:10:00,
2013-08-19 21:15:00,62.4,50.9,30.10,WSW,244,2.0,6.0,66,0.00,,,0.00,Wunderground v.1.15,2013-08-20 07:15:00,
2013-08-19 21:20:00,62.2,50.7,30.10,WSW,243,2.0,2.0,66,0.00,,,0.00,Wunderground v.1.15,2013-08-20 07:20:00,
2013-08-19 21:25:00,61.9,50.8,30.10,WSW,244,1.0,6.0,67,0.00,,,0.00,Wunderground v.1.15,2013-08-20 07:25:00,
2013-08-19 21:35:00,61.3,50.6,30.10,WSW,244,1.0,6.0,68,0.00,,,0.00,Wunderground v.1.15,2013-08-20 07:35:00,
2013-08-19 21:40:00,61.1,51.2,30.10,WSW,244,0.0,6.0,70,0.00,,,0.00,Wunderground v.1.15,2013-08-20 07:40:00,
2013-08-19 21:45:00,60.7,51.6,30.10,WSW,244,0.0,6.0,72,0.00,,,0.00,Wunderground v.1.15,2013-08-20 07:45:00,
2013-08-19 21:50:00,60.2,52.2,30.10,WSW,243,0.0,6.0,75,0.00,,,0.00,Wunderground v.1.15,2013-08-20 07:50:00,
2013-08-19 21:55:00,59.6,52.0,30.10,WSW,243,0.0,6.0,76,0.00,,,0.00,Wunderground v.1.15,2013-08-20 07:55:00,
2013-08-19 22:05:00,58.2,51.4,30.10,WSW,243,0.0,6.0,78,0.00,,,0.00,Wunderground v.1.15,2013-08-20 08:05:00,
2013-08-19 22:10:00,57.9,51.4,30.10,WSW,243,1.0,1.0,79,0.00,,,0.00,Wunderground v.1.15,2013-08-20 08:10:00,
2013-08-19 22:15:00,57.8,51.7,30.10,WSW,243,0.0,6.0,80,0.00,,,0.00,Wunderground v.1.15,2013-08-20 08:15:00,
2013-08-19 22:20:00,57.8,51.3,30.10,WSW,243,0.0,6.0,79,0.00,,,0.00,Wunderground v.1.15,2013-08-20 08:20:00,
2013-08-19 22:25:00,57.8,51.7,30.10,WSW,243,0.0,6.0,80,0.00,,,0.00,Wunderground v.1.15,2013-08-20 08:25:00,
2013-08-19 22:30:00,57.8,52.0,30.10,WSW,243,0.0,6.0,81,0.00,,,0.00,Wunderground v.1.15,2013-08-20 08:30:00,
2013-08-19 22:40:00,57.4,50.9,30.10,WSW,244,0.0,6.0,79,0.00,,,0.00,Wunderground v.1.15,2013-08-20 08:40:00,
2013-08-19 22:45:00,57.3,50.8,30.10,WSW,244,0.0,6.0,79,0.00,,,0.00,Wunderground v.1.15,2013-08-20 08:45:00,
2013-08-19 22:50:00,57.3,51.2,30.10,WSW,244,0.0,6.0,80,0.00,,,0.00,Wunderground v.1.15,2013-08-20 08:50:00,
2013-08-19 22:55:00,56.7,50.9,30.11,WSW,243,0.0,6.0,81,0.00,,,0.00,Wunderground v.1.15,2013-08-20 08:55:00,
2013-08-19 23:00:00,56.4,51.3,30.10,WSW,243,0.0,6.0,83,0.00,,,0.00,Wunderground v.1.15,2013-08-20 09:00:00,
2013-08-19 23:10:00,55.8,50.7,30.10,WSW,244,0.0,6.0,83,0.00,,,0.00,Wunderground v.1.15,2013-08-20 09:10:00,
2013-08-19 23:15:00,55.8,51.0,30.10,WSW,243,0.0,6.0,84,0.00,,,0.00,Wunderground v.1.15,2013-08-20 09:15:00,
2013-08-19 23:20:00,55.8,50.7,30.11,WSW,243,0.0,6.0,83,0.00,,,0.00,Wunderground v.1.15,2013-08-20 09:20:00,
2013-08-19 23:25:00,56.1,50.7,30.10,WSW,243,1.0,6.0,82,0.00,,,0.00,Wunderground v.1.15,2013-08-20 09:25:00,
2013-08-19 23:30:00,56.3,50.9,30.11,WSW,243,1.0,6.0,82,0.00,,,0.00,Wunderground v.1.15,2013-08-20 09:30:00,
2013-08-19 23:35:00,56.3,51.5,30.10,WSW,244,1.0,6.0,84,0.00,,,0.00,Wunderground v.1.15,2013-08-20 09:35:00,
2013-08-19 23:45:00,55.6,51.5,30.10,WSW,244,0.0,6.0,86,0.00,,,0.00,Wunderground v.1.15,2013-08-20 09:45:00,
2013-08-19 23:50:00,55.3,50.9,30.11,WSW,243,0.0,6.0,85,0.00,,,0.00,Wunderground v.1.15,2013-08-20 09:50:00,
2013-08-19 23:55:00,54.9,50.8,30.11,WSW,243,0.0,6.0,86,0.00,,,0.00,Wunderground v.1.15,2013-08-20 09:55:00,